Time,TemperatureF,DewpointF,PressureIn,WindDirection,WindDirectionDegrees,WindSpeedMPH,WindSpeedGustMPH,Humidity,HourlyPrecipIn,Conditions,Clouds,dailyrainin,SoftwareType,DateUTC
2013-04-15 00:02:00,43.0,42.0,-100.00,South,171,3.0,6.0,98,-99.99,,,-99.99,,2013-04-15 07:02:00,
2013-04-15 00:42:00,44.0,43.0,-100.00,SSW,209,2.0,4.0,98,-99.99,,,-99.99,,2013-04-15 07:42:00,
2013-04-15 00:52:00,43.0,42.0,-100.00,SW,215,2.0,5.0,98,-99.99,,,-99.99,,2013-04-15 07:52:00,
2013-04-15 01:02:00,43.0,42.0,-100.00,SSW,195,3.0,5.0,98,-99.99,,,-99.99,,2013-04-15 08:02:00,
2013-04-15 01:12:00,44.0,43.0,-100.00,South,190,4.0,8.0,98,-99.99,,,-99.99,,2013-04-15 08:12:00,
2013-04-15 01:22:00,43.0,42.0,-100.00,South,186,4.0,7.0,98,-99.99,,,-99.99,,2013-04-15 08:22:00,
2013-04-15 01:32:00,43.0,42.0,-100.00,South,170,3.0,5.0,98,-99.99,,,-99.99,,2013-04-15 08:32:00,
2013-04-15 01:42:00,43.0,42.0,-100.00,SSW,192,4.0,7.0,98,-99.99,,,-99.99,,2013-04-15 08:42:00,
2013-04-15 01:52:00,43.0,42.0,-100.00,SSW,199,4.0,6.0,98,-99.99,,,-99.99,,2013-04-15 08:52:00,
2013-04-15 02:02:00,43.0,42.0,-100.00,South,191,4.0,6.0,98,-99.99,,,-99.99,,2013-04-15 09:02:00,
2013-04-15 02:12:00,43.0,42.0,-100.00,South,191,4.0,6.0,98,-99.99,,,-99.99,,2013-04-15 09:12:00,
2013-04-15 02:22:00,43.0,42.0,-100.00,South,183,3.0,6.0,98,-99.99,,,-99.99,,2013-04-15 09:22:00,
2013-04-15 02:32:00,43.0,42.0,-100.00,SSW,194,5.0,7.0,98,-99.99,,,-99.99,,2013-04-15 09:32:00,
2013-04-15 02:42:00,43.0,42.0,-100.00,SSW,196,4.0,7.0,98,-99.99,,,-99.99,,2013-04-15 09:42:00,
2013-04-15 02:52:00,43.0,42.0,-100.00,South,186,4.0,8.0,98,-99.99,,,-99.99,,2013-04-15 09:52:00,
2013-04-15 03:02:00,42.0,41.0,-100.00,South,181,5.0,9.0,98,-99.99,,,-99.99,,2013-04-15 10:02:00,
2013-04-15 03:12:00,42.0,41.0,-100.00,SSE,162,3.0,6.0,98,-99.99,,,-99.99,,2013-04-15 10:12:00,
2013-04-15 03:22:00,42.0,41.0,-100.00,SSE,158,4.0,8.0,98,-99.99,,,-99.99,,2013-04-15 10:22:00,
2013-04-15 03:32:00,42.0,41.0,-100.00,SSE,158,4.0,8.0,98,-99.99,,,-99.99,,2013-04-15 10:32:00,
2013-04-15 03:42:00,42.0,41.0,-100.00,SSE,149,3.0,6.0,98,-99.99,,,-99.99,,2013-04-15 10:42:00,
2013-04-15 03:52:00,42.0,41.0,-100.00,SE,143,5.0,9.0,98,-99.99,,,-99.99,,2013-04-15 10:52:00,
2013-04-15 04:02:00,42.0,41.0,-100.00,SSE,147,5.0,8.0,98,-99.99,,,-99.99,,2013-04-15 11:02:00,
2013-04-15 04:12:00,42.0,41.0,-100.00,SE,143,5.0,10.0,98,-99.99,,,-99.99,,2013-04-15 11:12:00,
2013-04-15 04:22:00,42.0,41.0,-100.00,SSE,151,5.0,9.0,98,-99.99,,,-99.99,,2013-04-15 11:22:00,
2013-04-15 04:32:00,42.0,41.0,-100.00,SSE,152,4.0,8.0,98,-99.99,,,-99.99,,2013-04-15 11:32:00,
2013-04-15 04:42:00,42.0,41.0,-100.00,SSE,168,4.0,8.0,98,-99.99,,,-99.99,,2013-04-15 11:42:00,
2013-04-15 04:52:00,42.0,41.0,-100.00,South,170,3.0,8.0,98,-99.99,,,-99.99,,2013-04-15 11:52:00,
2013-04-15 05:03:00,42.0,41.0,-100.00,South,184,5.0,8.0,98,-99.99,,,-99.99,,2013-04-15 12:03:00,
2013-04-15 05:13:00,42.0,41.0,-100.00,South,172,4.0,6.0,98,-99.99,,,-99.99,,2013-04-15 12:13:00,
2013-04-15 05:22:00,42.0,41.0,-100.00,SE,146,5.0,10.0,98,-99.99,,,-99.99,,2013-04-15 12:22:00,
2013-04-15 05:33:00,42.0,41.0,-100.00,South,187,5.0,9.0,98,-99.99,,,-99.99,,2013-04-15 12:33:00,
2013-04-15 05:42:00,42.0,41.0,-100.00,SSE,155,4.0,9.0,98,-99.99,,,-99.99,,2013-04-15 12:42:00,
2013-04-15 05:52:00,42.0,41.0,-100.00,SSE,147,4.0,8.0,98,-99.99,,,-99.99,,2013-04-15 12:52:00,
2013-04-15 06:03:00,42.0,41.0,-100.00,SSE,154,4.0,9.0,98,-99.99,,,-99.99,,2013-04-15 13:03:00,
2013-04-15 06:12:00,42.0,41.0,-100.00,South,181,6.0,10.0,98,-99.99,,,-99.99,,2013-04-15 13:12:00,
2013-04-15 06:23:00,42.0,41.0,-100.00,South,184,6.0,10.0,98,-99.99,,,-99.99,,2013-04-15 13:23:00,
2013-04-15 06:32:00,42.0,41.0,-100.00,South,191,7.0,12.0,98,-99.99,,,-99.99,,2013-04-15 13:32:00,
2013-04-15 06:42:00,42.0,41.0,-100.00,South,188,7.0,11.0,98,-99.99,,,-99.99,,2013-04-15 13:42:00,
2013-04-15 06:52:00,42.0,41.0,-100.00,South,189,6.0,12.0,98,-99.99,,,-99.99,,2013-04-15 13:52:00,
2013-04-15 07:03:00,42.0,41.0,-100.00,South,189,6.0,12.0,98,-99.99,,,-99.99,,2013-04-15 14:03:00,
2013-04-15 07:12:00,42.0,41.0,-100.00,SSW,192,6.0,10.0,98,-99.99,,,-99.99,,2013-04-15 14:12:00,
2013-04-15 07:22:00,42.0,41.0,-100.00,South,178,6.0,11.0,98,-99.99,,,-99.99,,2013-04-15 14:22:00,
2013-04-15 07:32:00,42.0,41.0,-100.00,South,179,5.0,11.0,98,-99.99,,,-99.99,,2013-04-15 14:32:00,
2013-04-15 07:43:00,42.0,41.0,-100.00,South,169,4.0,8.0,98,-99.99,,,-99.99,,2013-04-15 14:43:00,
2013-04-15 07:53:00,42.0,41.0,-100.00,SSE,168,5.0,10.0,98,-99.99,,,-99.99,,2013-04-15 14:53:00,
2013-04-15 08:12:00,42.0,41.0,-100.00,SSE,163,5.0,9.0,98,-99.99,,,-99.99,,2013-04-15 15:12:00,
2013-04-15 08:22:00,42.0,41.0,-100.00,South,175,3.0,6.0,98,-99.99,,,-99.99,,2013-04-15 15:22:00,
2013-04-15 08:43:00,43.0,42.0,-100.00,South,185,6.0,11.0,98,-99.99,,,-99.99,,2013-04-15 15:43:00,
2013-04-15 08:53:00,43.0,42.0,-100.00,South,172,4.0,7.0,98,-99.99,,,-99.99,,2013-04-15 15:53:00,
2013-04-15 09:03:00,43.0,42.0,-100.00,South,184,5.0,10.0,98,-99.99,,,-99.99,,2013-04-15 16:03:00,
2013-04-15 09:12:00,43.0,42.0,-100.00,South,189,6.0,13.0,98,-99.99,,,-99.99,,2013-04-15 16:12:00,
2013-04-15 09:23:00,43.0,42.0,-100.00,South,186,8.0,13.0,98,-99.99,,,-99.99,,2013-04-15 16:23:00,
2013-04-15 09:32:00,43.0,42.0,-100.00,SSW,193,8.0,12.0,98,-99.99,,,-99.99,,2013-04-15 16:32:00,
2013-04-15 09:43:00,43.0,42.0,-100.00,SSW,198,7.0,12.0,98,-99.99,,,-99.99,,2013-04-15 16:43:00,
2013-04-15 09:53:00,43.0,42.0,-100.00,South,176,6.0,11.0,98,-99.99,,,-99.99,,2013-04-15 16:53:00,
2013-04-15 10:02:00,44.0,43.0,-100.00,SSW,195,5.0,11.0,98,-99.99,,,-99.99,,2013-04-15 17:02:00,
2013-04-15 10:21:00,44.0,43.0,-100.00,SW,215,5.0,10.0,98,-99.99,,,-99.99,,2013-04-15 17:21:00,
2013-04-15 10:32:00,44.0,43.0,-100.00,SW,229,4.0,9.0,98,-99.99,,,-99.99,,2013-04-15 17:32:00,
2013-04-15 10:43:00,44.0,43.0,-100.00,SSW,213,6.0,14.0,98,-99.99,,,-99.99,,2013-04-15 17:43:00,
2013-04-15 10:52:00,44.0,43.0,-100.00,SW,223,4.0,10.0,98,-99.99,,,-99.99,,2013-04-15 17:52:00,
2013-04-15 11:02:00,44.0,43.0,-100.00,WSW,245,5.0,10.0,98,-99.99,,,-99.99,,2013-04-15 18:02:00,
2013-04-15 11:12:00,44.0,43.0,-100.00,WSW,249,4.0,9.0,98,-99.99,,,-99.99,,2013-04-15 18:12:00,
2013-04-15 11:23:00,45.0,44.0,-100.00,WSW,242,4.0,8.0,98,-99.99,,,-99.99,,2013-04-15 18:23:00,
2013-04-15 11:32:00,45.0,44.0,-100.00,SW,231,6.0,12.0,98,-99.99,,,-99.99,,2013-04-15 18:32:00,
2013-04-15 11:42:00,45.0,44.0,-100.00,SW,225,5.0,10.0,98,-99.99,,,-99.99,,2013-04-15 18:42:00,
2013-04-15 11:52:00,45.0,44.0,-100.00,WSW,237,5.0,13.0,98,-99.99,,,-99.99,,2013-04-15 18:52:00,
2013-04-15 12:01:00,45.0,44.0,-100.00,WSW,240,7.0,13.0,98,-99.99,,,-99.99,,2013-04-15 19:01:00,
2013-04-15 12:11:00,45.0,44.0,-100.00,WSW,245,6.0,13.0,98,-99.99,,,-99.99,,2013-04-15 19:11:00,
2013-04-15 12:22:00,45.0,44.0,-100.00,WSW,249,7.0,13.0,98,-99.99,,,-99.99,,2013-04-15 19:22:00,
2013-04-15 12:33:00,45.0,44.0,-100.00,SW,236,8.0,12.0,98,-99.99,,,-99.99,,2013-04-15 19:33:00,
2013-04-15 12:56:00,45.0,44.0,-100.00,WSW,238,7.0,15.0,98,-99.99,,,-99.99,,2013-04-15 19:56:00,
2013-04-15 13:02:00,45.0,44.0,-100.00,WSW,238,7.0,15.0,98,-99.99,,,-99.99,,2013-04-15 20:02:00,
2013-04-15 13:11:00,45.0,44.0,-100.00,WSW,238,7.0,15.0,98,-99.99,,,-99.99,,2013-04-15 20:11:00,
2013-04-15 13:22:00,45.0,44.0,-100.00,WSW,243,6.0,15.0,98,-99.99,,,-99.99,,2013-04-15 20:22:00,
2013-04-15 13:32:00,45.0,44.0,-100.00,SW,233,7.0,15.0,98,-99.99,,,-99.99,,2013-04-15 20:32:00,
2013-04-15 13:42:00,45.0,44.0,-100.00,SW,231,7.0,15.0,98,-99.99,,,-99.99,,2013-04-15 20:42:00,
2013-04-15 13:52:00,45.0,44.0,-100.00,SW,235,5.0,12.0,98,-99.99,,,-99.99,,2013-04-15 20:52:00,
2013-04-15 14:02:00,45.0,45.0,-100.00,WSW,247,6.0,12.0,99,-99.99,,,-99.99,,2013-04-15 21:02:00,
2013-04-15 14:11:00,45.0,45.0,-100.00,WSW,242,8.0,15.0,99,-99.99,,,-99.99,,2013-04-15 21:11:00,
2013-04-15 14:22:00,45.0,44.0,-100.00,WSW,256,5.0,13.0,98,-99.99,,,-99.99,,2013-04-15 21:22:00,
2013-04-15 14:32:00,45.0,44.0,-100.00,SW,236,7.0,12.0,98,-99.99,,,-99.99,,2013-04-15 21:32:00,
2013-04-15 14:42:00,45.0,44.0,-100.00,SW,236,4.0,11.0,98,-99.99,,,-99.99,,2013-04-15 21:42:00,
2013-04-15 14:53:00,45.0,44.0,-100.00,SW,233,7.0,14.0,98,-99.99,,,-99.99,,2013-04-15 21:53:00,
2013-04-15 15:02:00,45.0,44.0,-100.00,WSW,238,6.0,11.0,98,-99.99,,,-99.99,,2013-04-15 22:02:00,
2013-04-15 15:13:00,45.0,44.0,-100.00,WSW,238,5.0,10.0,98,-99.99,,,-99.99,,2013-04-15 22:13:00,
2013-04-15 15:22:00,45.0,45.0,-100.00,WSW,241,5.0,11.0,99,-99.99,,,-99.99,,2013-04-15 22:22:00,
2013-04-15 15:32:00,45.0,44.0,-100.00,SW,232,5.0,12.0,98,-99.99,,,-99.99,,2013-04-15 22:32:00,
2013-04-15 15:42:00,45.0,44.0,-100.00,WSW,240,5.0,11.0,98,-99.99,,,-99.99,,2013-04-15 22:42:00,
2013-04-15 15:52:00,45.0,44.0,-100.00,West,264,4.0,9.0,98,-99.99,,,-99.99,,2013-04-15 22:52:00,
2013-04-15 16:02:00,44.0,43.0,-100.00,West,263,4.0,9.0,98,-99.99,,,-99.99,,2013-04-15 23:02:00,
2013-04-15 16:12:00,44.0,43.0,-100.00,WSW,253,5.0,10.0,98,-99.99,,,-99.99,,2013-04-15 23:12:00,
2013-04-15 16:22:00,44.0,43.0,-100.00,West,262,4.0,9.0,98,-99.99,,,-99.99,,2013-04-15 23:22:00,
2013-04-15 16:32:00,44.0,43.0,-100.00,WSW,255,4.0,9.0,98,-99.99,,,-99.99,,2013-04-15 23:32:00,
2013-04-15 16:42:00,44.0,43.0,-100.00,WSW,250,4.0,10.0,98,-99.99,,,-99.99,,2013-04-15 23:42:00,
2013-04-15 16:52:00,44.0,43.0,-100.00,West,265,4.0,8.0,98,-99.99,,,-99.99,,2013-04-15 23:52:00,
2013-04-15 17:02:00,44.0,44.0,-100.00,West,262,3.0,7.0,99,-99.99,,,-99.99,,2013-04-16 00:02:00,
2013-04-15 17:11:00,44.0,44.0,-100.00,SW,221,5.0,10.0,99,-99.99,,,-99.99,,2013-04-16 00:11:00,
2013-04-15 17:22:00,44.0,44.0,-100.00,WSW,248,5.0,9.0,99,-99.99,,,-99.99,,2013-04-16 00:22:00,
2013-04-15 17:31:00,45.0,45.0,-100.00,West,275,3.0,6.0,99,-99.99,,,-99.99,,2013-04-16 00:31:00,
2013-04-15 17:42:00,45.0,45.0,-100.00,West,275,3.0,6.0,99,-99.99,,,-99.99,,2013-04-16 00:42:00,
2013-04-15 17:51:00,44.0,44.0,-100.00,WSW,243,4.0,9.0,99,-99.99,,,-99.99,,2013-04-16 00:51:00,
2013-04-15 18:02:00,44.0,44.0,-100.00,West,264,4.0,8.0,99,-99.99,,,-99.99,,2013-04-16 01:02:00,
2013-04-15 18:12:00,44.0,44.0,-100.00,SW,236,3.0,8.0,99,-99.99,,,-99.99,,2013-04-16 01:12:00,
2013-04-15 18:22:00,44.0,44.0,-100.00,WSW,244,3.0,9.0,99,-99.99,,,-99.99,,2013-04-16 01:22:00,
2013-04-15 18:32:00,44.0,44.0,-100.00,SW,219,4.0,10.0,99,-99.99,,,-99.99,,2013-04-16 01:32:00,
2013-04-15 18:42:00,44.0,44.0,-100.00,SW,232,5.0,8.0,99,-99.99,,,-99.99,,2013-04-16 01:42:00,
2013-04-15 18:52:00,44.0,44.0,-100.00,WSW,240,4.0,8.0,99,-99.99,,,-99.99,,2013-04-16 01:52:00,
2013-04-15 19:02:00,44.0,44.0,-100.00,SW,221,3.0,7.0,99,-99.99,,,-99.99,,2013-04-16 02:02:00,
2013-04-15 19:12:00,44.0,44.0,-100.00,WSW,238,3.0,6.0,99,-99.99,,,-99.99,,2013-04-16 02:12:00,
2013-04-15 19:21:00,43.0,43.0,-100.00,WSW,243,4.0,8.0,99,-99.99,,,-99.99,,2013-04-16 02:21:00,
2013-04-15 19:32:00,43.0,43.0,-100.00,WSW,248,4.0,10.0,99,-99.99,,,-99.99,,2013-04-16 02:32:00,
2013-04-15 19:42:00,43.0,42.0,-100.00,WSW,245,5.0,9.0,98,-99.99,,,-99.99,,2013-04-16 02:42:00,
2013-04-15 19:51:00,43.0,42.0,-100.00,SW,217,3.0,7.0,98,-99.99,,,-99.99,,2013-04-16 02:51:00,
2013-04-15 20:02:00,43.0,42.0,-100.00,SSW,210,4.0,9.0,98,-99.99,,,-99.99,,2013-04-16 03:02:00,
2013-04-15 20:12:00,43.0,42.0,-100.00,SSW,209,4.0,7.0,98,-99.99,,,-99.99,,2013-04-16 03:12:00,
2013-04-15 20:22:00,43.0,42.0,-100.00,SW,219,4.0,8.0,98,-99.99,,,-99.99,,2013-04-16 03:22:00,
2013-04-15 20:32:00,42.0,41.0,-100.00,SSW,203,5.0,10.0,98,-99.99,,,-99.99,,2013-04-16 03:32:00,
2013-04-15 20:43:00,42.0,41.0,-100.00,South,187,7.0,12.0,98,-99.99,,,-99.99,,2013-04-16 03:43:00,
2013-04-15 20:52:00,42.0,41.0,-100.00,South,171,5.0,10.0,98,-99.99,,,-99.99,,2013-04-16 03:52:00,
2013-04-15 21:02:00,42.0,41.0,-100.00,South,186,7.0,13.0,98,-99.99,,,-99.99,,2013-04-16 04:02:00,
2013-04-15 21:12:00,42.0,41.0,-100.00,South,186,6.0,11.0,98,-99.99,,,-99.99,,2013-04-16 04:12:00,
2013-04-15 21:23:00,41.0,41.0,-100.00,SSE,168,5.0,10.0,99,-99.99,,,-99.99,,2013-04-16 04:23:00,
2013-04-15 21:32:00,41.0,40.0,-100.00,SSE,150,5.0,9.0,98,-99.99,,,-99.99,,2013-04-16 04:32:00,
2013-04-15 21:42:00,41.0,40.0,-100.00,SE,141,5.0,9.0,98,-99.99,,,-99.99,,2013-04-16 04:42:00,
2013-04-15 21:52:00,41.0,41.0,-100.00,SSE,160,4.0,8.0,99,-99.99,,,-99.99,,2013-04-16 04:52:00,
2013-04-15 22:02:00,41.0,41.0,-100.00,South,188,7.0,13.0,99,-99.99,,,-99.99,,2013-04-16 05:02:00,
2013-04-15 22:12:00,41.0,41.0,-100.00,SSE,167,6.0,10.0,99,-99.99,,,-99.99,,2013-04-16 05:12:00,
2013-04-15 22:22:00,41.0,41.0,-100.00,SE,140,4.0,11.0,99,-99.99,,,-99.99,,2013-04-16 05:22:00,
2013-04-15 22:32:00,41.0,41.0,-100.00,SSE,168,3.0,10.0,99,-99.99,,,-99.99,,2013-04-16 05:32:00,
2013-04-15 22:42:00,41.0,41.0,-100.00,South,190,8.0,12.0,99,-99.99,,,-99.99,,2013-04-16 05:42:00,
2013-04-15 22:51:00,41.0,41.0,-100.00,SSW,192,9.0,15.0,99,-99.99,,,-99.99,,2013-04-16 05:51:00,
2013-04-15 23:02:00,41.0,41.0,-100.00,SSW,193,7.0,12.0,99,-99.99,,,-99.99,,2013-04-16 06:02:00,
2013-04-15 23:12:00,40.0,40.0,-100.00,SSE,149,5.0,9.0,99,-99.99,,,-99.99,,2013-04-16 06:12:00,
2013-04-15 23:22:00,40.0,40.0,-100.00,SE,141,4.0,9.0,99,-99.99,,,-99.99,,2013-04-16 06:22:00,
2013-04-15 23:32:00,40.0,40.0,-100.00,SE,136,5.0,8.0,99,-99.99,,,-99.99,,2013-04-16 06:32:00,
2013-04-15 23:42:00,40.0,39.0,-100.00,SSE,155,4.0,9.0,98,-99.99,,,-99.99,,2013-04-16 06:42:00,
2013-04-15 23:52:00,40.0,39.0,-100.00,SSE,152,2.0,5.0,98,-99.99,,,-99.99,,2013-04-16 06:52:00,